Location: Newark
(48.6461°N, 4.3644°W)
Time: 21:13:47
(UTC+00:00)

Transit 4A - Pass Details

Date: 22 January 2020
Orbit: 872 x 973 km, 66.8° (Epoch: 19 February)

Event Time Altitude Azimuth Distance (km) Brightness Sun altitude
Rises 18:07:10 0° 308° (NW) 3,469 11.4 -11.2°
Reaches altitude 10° 18:11:55 10° 273° (W) 2,528 11.4 -11.9°
Maximum altitude 18:13:14 11° 260° (W) 2,472 11.6 -12.1°
Drops below altitude 10° 18:14:34 10° 246° (WSW) 2,529 11.7 -12.3°
Sets 18:19:22 0° 211° (SSW) 3,477 11.7 -13.1°
